1284508825555,1.38717
1284508885555,1.37916
1284508945555,1.38901
1284509005555,1.38796
1284509065555,1.39844
1284509125555,1.38607
1284509185555,1.38069
1284509245555,1.40522
1284509305555,1.38899
1284509365555,1.38423
1284509425555,1.38244
1284509485555,1.38882
1284509545555,1.38361
1284509605555,1.38768
1284509665555,1.39284
1284509725555,1.38166
1284509785555,1.37944
1284509845555,1.38408
1284509905555,1.37619
1284509965555,1.38923
1284510025555,1.38292
1284510085555,1.38197
1284510145555,1.37940
1284510205555,1.37213
1284510265555,1.37186
1284510325555,1.38128
1284510385555,1.38006
1284510445555,1.38600
1284510505555,1.38613
1284510565555,1.38911
1284510625555,1.37672
1284510685555,1.37959
1284510745555,1.38514
1284510805555,1.38370
1284510865555,1.37870
1284510925555,1.38207
1284510985555,1.38023
1284511045555,1.38420
1284511105555,1.38434
1284511165555,1.38165
1284511225555,1.38046
1284511285555,1.38664
1284511345555,1.37358
1284511405555,1.37385
1284511465555,1.37590
1284511525555,1.37536
1284511585555,1.38240
1284511645555,1.37770
1284511705555,1.38286
1284511765555,1.38668
1284511825555,1.41642
1284511885555,1.38120
1284511945555,1.37972
1284512005555,1.37608
1284512065555,1.37411
1284512125555,1.38534
1284512185555,1.36998
1284512245555,1.38129
1284512305555,1.38284
1284512365555,1.37897
1284512425568,1.38514
1284512485568,1.38263
1284512545568,1.38185
1284512605568,1.37393
1284512665568,1.37527
1284512725568,1.37197
1284512785568,1.37903
1284512845568,1.37116
1284512905568,1.38324
1284512965568,1.38687
1284513025568,1.38830
1284513085568,1.37863
1284513145568,1.36460
1284513205568,1.37732
1284513265568,1.38477
1284513325568,1.37974
1284513385568,1.38422
1284513445568,1.37946
1284513505568,1.38101
1284513565568,1.37905
1284513625568,1.38069
1284513685568,1.38430
1284513745568,1.38439
1284513805568,1.38394
1284513865568,1.39153
1284513925568,1.38545
1284513985568,1.38793
1284514045568,1.38000
1284514105568,1.38767
1284514165568,1.37524
1284514225568,1.38334
1284514285568,1.38121
1284514345568,1.37311
1284514405568,1.38191
1284514465568,1.37847
1284514525568,1.38073
1284514585568,1.37968
1284514645568,1.37330
1284514705568,1.38091
1284514765568,1.37589
1284514825568,1.36952
1284514885568,1.38548
1284514945568,1.39093
1284515005568,1.37347
1284515065568,1.37304
1284515125568,1.38011
1284515185568,1.36553
1284515245568,1.37233
1284515305568,1.36398
1284515365568,1.37518
1284515425568,1.39126
1284515485568,1.36996
1284515545568,1.37584
1284515605568,1.38876
1284515665568,1.36635
1284515725568,1.36474
1284515785568,1.38018
1284515845568,1.38823
1284515905568,1.37921
1284515965568,1.37672
1284516025579,1.38070
1284516085579,1.38364
1284516145579,1.37513
1284516205579,1.37328
1284516265579,1.37119
1284516325579,1.37874
1284516385580,1.38045
1284516445580,1.37209
1284516505580,1.37522
1284516565580,1.38243
1284516625580,1.37849
1284516685580,1.38478
1284516745579,1.37668
1284516805579,1.40559
1284516865579,1.38196
1284516925579,1.37245
1284516985579,1.37463
1284517045579,1.37333
1284517105579,1.32798
1284517165579,1.38109
1284517225579,1.42037
1284517285579,1.37091
1284517345579,1.37027
1284517405579,1.37267
1284517465579,1.37496
1284517525579,1.37870
1284517585579,1.36946
1284517645579,1.37987
1284517705579,1.37381
1284517765580,1.38458
1284517825580,1.36809
1284517885580,1.37055
1284517945580,1.38634
1284518005580,1.36863
1284518065579,1.38187
1284518125579,1.39252
1284518185579,1.37506
1284518245579,1.36527
1284518305579,1.37849
1284518365579,1.37221
1284518425579,1.37801
1284518485579,1.37666
1284518545579,1.36957
1284518605579,1.37769
1284518665579,1.38175
1284518725579,1.37423
1284518785579,1.37920
1284518845579,1.37990
1284518905579,1.37387
1284518965579,1.37516
1284519025579,1.37804
1284519085580,1.37307
1284519145580,1.37035
1284519205580,1.36748
1284519265580,1.37198
1284519325580,1.37468
1284519385580,1.37241
1284519445579,1.37587
1284519505579,1.36929
1284519565579,1.36967
1284519625591,1.36272
1284519685591,1.35996
1284519745591,1.36725
1284519805591,1.36777
1284519865591,1.37471
1284519925591,1.37419
1284519985591,1.36337
1284520045591,1.37505
1284520105591,1.37724
1284520165591,1.37777
1284520225591,1.37123
1284520285591,1.38382
1284520345591,1.37259
1284520405591,1.36526
1284520465591,1.37470
1284520525591,1.37572
1284520585591,1.37338
1284520645591,1.37433
1284520705591,1.37728
1284520765591,1.37695
1284520825591,1.37054
1284520885591,1.36953
1284520945591,1.36835
1284521005591,1.37894
1284521065591,1.37173
1284521125591,1.37985
1284521185591,1.37559
1284521245591,1.36588
1284521305591,1.36901
1284521365591,1.37081
1284521425591,1.38034
1284521485591,1.37240
1284521545591,1.37499
1284521605591,1.36834
1284521665591,1.37665
1284521725591,1.37609
1284521785591,1.37572
1284521845591,1.37608
1284521905591,1.37932
1284521965591,1.38210
1284522025591,1.37523
1284522085591,1.38323
1284522145591,1.37698
1284522205591,1.37570
1284522265591,1.38963
1284522325591,1.38735
1284522385591,1.37345
1284522445591,1.37742
1284522505591,1.37791
1284522565591,1.38009
1284522625591,1.37732
1284522685591,1.37767
1284522745591,1.37884
1284522805591,1.37792
1284522865591,1.38347
1284522925591,1.38165
1284522985591,1.39037
1284523045591,1.38800
1284523105591,1.38748
1284523165591,1.38799
1284523225603,1.38054
1284523285603,1.38588
1284523345603,1.37674
1284523405603,1.38057
1284523465603,1.38137
1284523525603,1.39195
1284523585603,1.37842
1284523645603,1.37590
1284523705603,1.39123
1284523765603,1.38205
1284523825603,1.37946
1284523885603,1.38899
1284523945603,1.37805
1284524005603,1.38953
1284524065603,1.38098
1284524125603,1.37860
1284524185603,1.38162
1284524245603,1.38938
1284524305603,1.38747
1284524365603,1.38053
1284524425603,1.38598
1284524485603,1.37953
1284524545603,1.37663
1284524605603,1.38786
1284524665603,1.38546
1284524725603,1.38199
1284524785603,1.38169
1284524845603,1.39295
1284524905603,1.38702
1284524965603,1.38714
1284525025603,1.39470
1284525085603,1.38631
1284525145603,1.38769
1284525205603,1.38716
1284525265603,1.38182
1284525325603,1.39666
1284525385603,1.39265
1284525445603,1.39599
1284525505603,1.39522
1284525565603,1.39555
1284525625603,1.38901
1284525685603,1.38247
1284525745603,1.38384
1284525805603,1.39020
1284525865603,1.40220
1284525925603,1.38648
1284525985603,1.38921
1284526045603,1.39317
1284526105603,1.38614
1284526165603,1.40737
1284526225603,1.39451
1284526285603,1.38812
1284526345603,1.39945
1284526405603,1.39319
1284526465603,1.39295
1284526525603,1.39346
1284526585603,1.39172
1284526645603,1.39440
1284526705603,1.39389
1284526765603,1.39533
1284526825614,1.39739
1284526885614,1.39752
1284526945614,1.39647
1284527005614,1.36648
1284527065614,1.38975
1284527125614,1.39923
1284527185614,1.39649
1284527245614,1.40124
1284527305614,1.39328
1284527365614,1.39976
1284527425614,1.39562
1284527485614,1.41208
1284527545614,1.40291
1284527605614,1.40138
1284527665614,1.40877
1284527725614,1.39966
1284527785614,1.40492
1284527845614,1.40253
1284527905614,1.39842
1284527965614,1.41132
1284528025614,1.40630
1284528085614,1.41597
1284528145614,1.40850
1284528205614,1.41815
1284528265614,1.40860
1284528325614,1.40942
1284528385614,1.42088
1284528445614,1.41082
1284528505614,1.42788
1284528565614,1.41617
1284528625614,1.42289
1284528685614,1.42626
1284528745614,1.41717
1284528805614,1.41546
1284528865614,1.41372
1284528925614,1.41825
1284528985614,1.54229
1284529045614,1.42143
1284529105614,1.42030
1284529165614,1.42256
1284529225614,1.43882
1284529285614,1.42756
1284529345614,1.42170
1284529405614,1.42234
1284529465614,1.41567
1284529525614,1.42507
1284529585614,1.42955
1284529645614,1.42681
1284529705614,1.43258
1284529765614,1.42126
1284529825614,1.43060
1284529885614,1.42840
1284529945614,1.42851
1284530005614,1.43337
1284530065614,1.42639
1284530125614,1.43010
1284530185614,1.43440
1284530245614,1.43226
1284530305614,1.42683
1284530365614,1.42772
1284530425626,1.42962
1284530485626,1.42160
1284530545626,1.43193
1284530605626,1.42517
1284530665626,1.41872
1284530725626,1.42722
1284530785626,1.40978
1284530845626,1.42232
1284530905626,1.42938
1284530965626,1.43169
1284531025626,1.41544
1284531085626,1.41889
1284531145626,1.42019
1284531205626,1.44359
1284531265626,1.41901
1284531325626,1.41831
1284531385626,1.41773
1284531445626,1.42480
1284531505626,1.41771
1284531565626,1.41904
1284531625626,1.43132
1284531685626,1.41334
1284531745626,1.41752
1284531805626,1.42458
1284531865626,1.42628
1284531925626,1.41929
1284531985626,1.41838
1284532045626,1.41884
1284532105626,1.41101
1284532165626,1.42486
1284532225626,1.41589
1284532285626,1.40580
1284532345626,1.41179
1284532405626,1.42472
1284532465626,1.41111
1284532525626,1.41758
1284532585626,1.42913
1284532645626,1.41790
1284532705626,1.41281
1284532765626,1.41240
1284534625637,1.40514
1284534685637,1.40246
1284534745637,1.41400
1284534805637,1.41787
1284534865637,1.42942
1284534925637,1.40729
1284534985637,1.40721
1284535045637,1.40682
1284535105637,1.41267
1284535165637,1.40969
1284535225637,1.41388
1284535285637,1.40518
1284535345637,1.40674
1284535405637,1.42759
1284535465637,1.41404
1284535525637,1.41841
1284535585637,1.40620
1284535645637,1.41089
1284535705637,1.42615
1284535765637,1.41153
1284535825637,1.41622
1284535885637,1.41463
1284535945637,1.41358
1284536005637,1.41310
1284536065637,1.40956
1284536125637,1.41154
1284536185637,1.42112
1284536245637,1.41343
1284536305637,1.41058
1284536365637,1.41625
1284536425637,1.40994
1284536485637,1.40696
1284536545637,1.40843
1284536605637,1.41610
1284536665637,1.40701
1284536725637,1.41080
1284536785637,1.40472
1284536845637,1.40467
1284536905637,1.40509
1284536965637,1.40264
1284537025637,1.41185
1284537085637,1.40585
1284537145637,1.40456
1284537205637,1.40519
1284537265637,1.39827
1284537325637,1.40979
1284537385637,1.39932
1284537445637,1.40497
1284537505637,1.39735
1284537565637,1.40842
1284537625649,1.40113
1284537685649,1.40296
1284537745649,1.40043
1284537805649,1.39289
1284537865649,1.39262
1284537925649,1.38905
1284537985649,1.39656
1284538045649,1.39898
1284538105649,1.39807
1284538165649,1.40081
1284538225649,1.39319
1284538285649,1.39293
1284538345649,1.40064
1284538405649,1.39879
1284538465649,1.39992
1284538525649,1.40449
1284538585649,1.39895
1284538645649,1.39223
1284538705649,1.39572
1284538765649,1.39559
1284538825649,1.39568
1284538885649,1.39996
1284538945649,1.40558
1284539005649,1.38852
1284539065649,1.40521
1284539125649,1.39997
1284539185649,1.39254
1284539245649,1.39944
1284539305649,1.39919
1284539365649,1.39363
1284539425649,1.39496
1284539485649,1.40757
1284539545649,1.39777
1284539605649,1.39649
1284539665649,1.40652
1284539725649,1.38499
1284539785649,1.40514
1284539845649,1.40564
1284539905649,1.38948
1284539965649,1.41070
1284540025649,1.40975
1284540085649,1.41509
1284540145649,1.40091
1284540205649,1.40158
1284540265649,1.40281
1284540325649,1.39201
1284540385649,1.40188
1284540445649,1.40875
1284540505649,1.40819
1284540565649,1.40595
1284540625649,1.41155
1284540685649,1.40295
1284540745649,1.40607
1284540805649,1.40220
1284540865649,1.40983
1284540925649,1.40393
1284540985649,1.39745
1284541045649,1.40722
1284541105649,1.41309
1284541165649,1.40485
1284541225661,1.41266
1284541285661,1.40262
1284541345661,1.41394
1284541405661,1.40491
1284541465661,1.41246
1284541525661,1.41469
1284541585661,1.39897
1284541645661,1.41720
1284541705661,1.40552
1284541765661,1.40741
1284541825661,1.39801
1284541885661,1.40243
1284541945661,1.40572
1284542005661,1.40208
1284542065661,1.40660
1284542125661,1.40704
1284542185661,1.40902
1284542245661,1.40736
1284542305661,1.40407
1284542365661,1.41023
1284542425661,1.40604
1284542485661,1.40396
1284542545661,1.41071
1284542605661,1.40009
1284542665661,1.40900
1284542725661,1.39328
1284542785661,1.41100
1284542845661,1.40940
1284542905661,1.41274
1284542965661,1.41481
1284543025661,1.41316
1284543085661,1.40958
1284543145661,1.40969
1284543205661,1.41256
1284543265661,1.40886
1284543325661,1.41146
1284543385661,1.41107
1284543445661,1.41037
1284543505661,1.41315
1284543565661,1.40247
1284543625661,1.40724
1284543685661,1.40972
1284543745661,1.41114
1284543805661,1.41048
1284543865661,1.41285
1284543925661,1.41570
1284543985661,1.41045
1284544045661,1.41197
1284544105661,1.40586
1284544165661,1.41656
1284544225661,1.41870
1284544285661,1.42393
1284544345661,1.40853
1284544405661,1.41152
1284544465661,1.41523
1284544525661,1.40932
1284544585661,1.41661
1284544645661,1.41582
1284544705661,1.40806
1284544765661,1.40951
1284544825673,1.41304
1284544885673,1.41034
1284544945673,1.40535
1284545005673,1.41039
1284545065673,1.40833
1284545125673,1.39941
1284545185673,1.41333
1284545245673,1.41729
1284545305673,1.41110
1284545365673,1.41773
1284545425673,1.41136
1284545485673,1.40815
1284545545673,1.41795
1284545605673,1.41308
1284545665673,1.42050
1284545725673,1.41401
1284545785673,1.44104
1284545845673,1.41751
1284545905673,1.42202
1284545965673,1.41945
1284546025673,1.41125
1284546085673,1.41419
1284546145673,1.40768
1284546205673,1.41282
1284546265673,1.41751
1284546325673,1.41733
1284546385673,1.42434
1284546445673,1.41460
1284546505673,1.41290
1284546565673,1.42756
1284546625673,1.41334
1284546685673,1.40483
1284546745673,1.41487
1284546805673,1.41792
1284546865673,1.41751
1284546925673,1.42025
1284546985673,1.41420
1284547045673,1.41389
1284547105673,1.42051
1284547165673,1.42853
1284547225673,1.42029
1284547285673,1.43732
1284547345673,1.41633
1284547405673,1.42180
1284547465673,1.41544
1284547525673,1.41651
1284547585673,1.41894
1284547645673,1.41175
1284547705673,1.41807
1284547765673,1.41504
1284547825673,1.40450
1284547885673,1.42614
1284547945673,1.42899
1284548005673,1.42644
1284548065673,1.41828
1284548125673,1.41777
1284548185673,1.42067
1284548245673,1.41398
1284548305673,1.42562
1284548365673,1.41193
1284548425685,1.43214
1284548485685,1.41448
1284548545685,1.41812
1284548605685,1.42525
1284548665685,1.41595
1284548725685,1.42111
1284548785685,1.42260
1284548845685,1.42244
1284548905685,1.43191
1284548965685,1.42712
1284549025685,1.41788
1284549085685,1.42537
1284549145685,1.43302
1284549205685,1.42101
1284549265685,1.42417
1284549325685,1.43577
1284549385685,1.42017
1284549445685,1.43303
1284549505685,1.42061
1284549565685,1.42256
1284549625685,1.42581
1284549685685,1.42371
1284549745685,1.42248
1284549805685,1.42759
1284549865685,1.41902
1284549925685,1.42773
1284549985685,1.41734
1284550045685,1.42685
1284550105685,1.42158
1284550165685,1.42450
1284550225685,1.40703
1284550285685,1.43256
1284550345685,1.42319
1284550405685,1.41413
1284550465685,1.43261
1284550525685,1.42052
1284550585685,1.42103
1284550645685,1.40872
1284550705685,1.42102
1284550765685,1.41871
1284550825685,1.42372
1284550885685,1.43194
1284550945685,1.42125
1284551005685,1.41621
1284551065685,1.43263
1284551125685,1.42370
1284551185685,1.41721
1284551245685,1.41821
1284551305685,1.42351
1284551365685,1.42052
1284551425685,1.42714
1284551485685,1.41706
1284551545685,1.42327
1284551605685,1.41548
1284551665685,1.41795
1284551725685,1.44333
1284551785685,1.41168
1284551845685,1.42144
1284551905685,1.41118
1284551965685,1.41849
1284552025698,1.42243
1284552085698,1.42174
1284552145698,1.41426
1284552205698,1.42091
1284552265698,1.44454
1284552325698,1.42434
1284552385698,1.42505
1284552445698,1.41754
1284552505698,1.41395
1284552565698,1.41345
1284552625698,1.44734
1284552685698,1.42392
1284552745698,1.41236
1284552805698,1.41425
1284552865698,1.41271
1284552925698,1.41406
1284552985698,1.41355
1284553045698,1.42566
1284553105698,1.42233
1284553165698,1.41741
1284553225698,1.41393
1284553285698,1.42570
1284553345698,1.41659
1284553405698,1.41404
1284553465698,1.41323
1284553525698,1.42321
1284553585698,1.42532
1284553645698,1.41212
1284553705698,1.41276
1284553765698,1.41739
1284553825698,1.41289
1284553885698,1.42287
1284553945698,1.41047
1284554005698,1.41943
1284554065698,1.40580
1284554125698,1.41217
1284554185698,1.41150
1284554245698,1.41831
1284554305698,1.41904
1284554365698,1.42043
1284554425698,1.41749
1284554485698,1.40962
1284554545698,1.42327
1284554605698,1.42160
1284554665698,1.41248
1284554725698,1.41861
1284554785698,1.41701
1284554845698,1.40401
1284554905698,1.43066
1284554965698,1.41742
1284555025698,1.42542
1284555085698,1.41802
1284555145698,1.42601
1284555205698,1.42029
1284555265698,1.46375
1284555325698,1.43081
1284555385698,1.42819
1284555445698,1.41947
1284555505698,1.42405
1284555565698,1.42329
1284555625710,1.41895
1284555685710,1.43293
1284555745710,1.42194
1284555805710,1.42341
1284555865710,1.41750
1284555925710,1.42310
1284555985710,1.41995
1284556045710,1.41621
1284556105710,1.41422
1284556165710,1.42347
1284556225710,1.45157
1284556285710,1.43033
1284556345710,1.42865
1284556405710,1.42462
1284556465710,1.42780
1284556525710,1.42733
1284556585710,1.43158
1284556645710,1.43096
1284556705710,1.41443
1284556765710,1.41738
1284556825710,1.42563
1284556885710,1.44155
1284556945710,1.42018
1284557005710,1.42525
1284557065710,1.42772
1284557125710,1.41131
1284557185710,1.42065
1284557245710,1.42538
1284557305710,1.43523
1284557365710,1.42535
1284557425710,1.42448
1284557485710,1.43005
1284557545710,1.41762
1284557605710,1.42519
1284557665710,1.42172
1284557725710,1.42819
1284557785710,1.41850
1284557845710,1.42293
1284557905710,1.43014
1284557965710,1.41682
1284558025710,1.44080
1284558085710,1.41635
1284558145710,1.41619
1284558205710,1.42104
1284558265710,1.42072
1284558325710,1.43082
1284558385710,1.42362
1284558445710,1.41561
1284558505710,1.42139
1284558565710,1.42708
1284558625710,1.41623
1284558685710,1.42099
1284558745710,1.43011
1284558805710,1.43103
1284558865710,1.42288
1284558925710,1.43133
1284558985710,1.41644
1284559045710,1.42399
1284559105710,1.43988
1284559165710,1.43758
1284559225723,1.45189
1284559285723,1.43025
1284559345723,1.42244
1284559405723,1.43737
1284559465723,1.42799
1284559525723,1.41733
1284559585723,1.42646
1284559645723,1.42418
1284559705723,1.42467
1284559765723,1.42576
1284559825723,1.43152
1284559885723,1.42485
1284559945723,1.44025
1284560005723,1.42974
1284560065723,1.42862
1284560125723,1.43003
1284560185723,1.43844
1284560245723,1.42934
1284560305723,1.43567
1284560365723,1.43561
1284560425723,1.42946
1284560485723,1.43269
1284560545723,1.42697
1284560605723,1.42575
1284560665723,1.43439
1284560725723,1.43249
1284560785723,1.43482
1284560845723,1.43516
1284560905723,1.43922
1284560965723,1.42879
1284561025723,1.44022
1284561085723,1.43766
1284561145723,1.44871
1284561205723,1.42871
1284561265723,1.43885
1284561325723,1.45362
1284561385723,1.44507
1284561445723,1.43338
1284561505723,1.44833
1284561565723,1.44318
1284561625723,1.44230
1284561685723,1.45296
1284561745723,1.43585
1284561805723,1.43029
1284561865723,1.44939
1284561925723,1.43338
1284561985723,1.44755
1284562045723,1.45027
1284562105723,1.45067
1284562165723,1.45310
1284562225723,1.44523
1284562285723,1.45178
1284562345723,1.44796
1284562405723,1.44562
1284562465723,1.45058
1284562525723,1.44094
1284562585723,1.44283
1284562645723,1.45625
1284562705723,1.44615
1284562765723,1.44638
1284562825736,1.44474
1284562885736,1.44829
1284562945736,1.46122
1284563005736,1.44316
1284563065736,1.45210
1284563125736,1.44548
1284563185736,1.43841
1284563245736,1.44517
1284563305736,1.45316
1284563365736,1.44389
1284563425736,1.44251
1284563485736,1.44815
1284563545736,1.44369
1284563605736,1.43753
1284563665736,1.44288
1284563725736,1.43661
1284563785736,1.44046
1284563845736,1.44494
1284563905736,1.44394
1284563965736,1.45142
1284564025736,1.43983
1284564085736,1.43401
1284564145736,1.45340
1284564205736,1.44257
1284564265736,1.43857
1284564325736,1.44068
1284564385736,1.44505
1284564445736,1.45142
1284564505736,1.43596
1284564565736,1.44123
1284564625736,1.43592
1284564685736,1.43017
1284564745736,1.43425
1284564805736,1.43946
1284564865736,1.43822
1284564925736,1.43688
1284564985736,1.43107
1284565045736,1.44253
1284565105736,1.43637
1284565165736,1.43986
1284565225736,1.43715
1284565285736,1.43909
1284565345736,1.43469
1284565405736,1.43824
1284565465736,1.43983
1284565525736,1.42099
1284565585736,1.42989
1284565645736,1.43980
1284565705736,1.43959
1284565765736,1.43960
1284565825736,1.44840
1284565885736,1.43833
1284565945736,1.43869
1284566005736,1.43623
1284566065736,1.44089
1284566125736,1.44106
1284566185736,1.45267
1284566245736,1.43797
1284566305736,1.43786
1284566365736,1.43897
1284566425750,1.43548
1284566485750,1.42843
1284566545750,1.43787
1284566605750,1.44858
1284566665750,1.42771
1284566725750,1.42599
1284566785750,1.43712
1284566845750,1.44056
1284566905750,1.44034
1284566965750,1.43822
1284567025750,1.43704
1284567085750,1.43861
1284567145750,1.44188
1284567205750,1.42933
1284567265750,1.44457
1284567325750,1.44865
1284567385750,1.43445
1284567445750,1.43980
1284567505750,1.44538
1284567565750,1.43922
1284567625750,1.43725
1284567685750,1.43852
1284567745750,1.43438
1284567805750,1.44406
1284567865750,1.42974
1284567925750,1.44465
1284567985750,1.44254
1284568045750,1.45238
1284568105750,1.44319
1284568165750,1.45178
1284568225750,1.43848
1284568285750,1.43943
1284568345750,1.43069
1284568405750,1.43981
1284568465750,1.43974
1284568525750,1.44348
1284568585750,1.44824
1284568645750,1.44392
1284568705750,1.44133
1284568765750,1.44335
1284568825750,1.44697
1284568885750,1.44155
1284568945750,1.44090
1284569005750,1.44517
1284569065750,1.45538
1284569125750,1.45998
1284569185750,1.44877
1284569245750,1.45668
1284569305750,1.44923
1284569365750,1.45292
1284569425750,1.45015
1284569485750,1.44799
1284569545750,1.44302
1284569605750,1.44719
1284569665750,1.45734
1284569725750,1.44854
1284569785750,1.44242
1284569845750,1.44172
1284569905750,1.45743
1284569965750,1.45631
1284570025763,1.45082
1284570085763,1.45123
1284570145763,1.46743
1284570205763,1.48459
1284570265763,1.45521
1284570325763,1.45439
1284570385763,1.46228
1284570445763,1.44402
1284570505763,1.45752
1284570565763,1.45511
1284570625763,1.44737
1284570685763,1.41788
1284571285763,1.45645
1284571345763,1.21025
1284571405763,1.46140
1284571465763,1.45021
1284571525763,1.44990
1284571585763,1.45301
1284571645763,1.45578
1284571705763,1.46204
1284571765763,1.44932
1284571825763,1.45465
1284571885763,1.46312
1284571945763,1.45908
1284572005763,1.45171
1284572065763,1.44800
1284572125763,1.46552
1284572185763,1.45840
1284572245763,1.44982
1284572305763,1.44956
1284572365763,1.45147
1284572425763,1.46691
1284572485763,1.44682
1284572545763,1.45226
1284572605763,1.45137
1284572665763,1.45330
1284572725763,1.44320
1284572785763,1.45220
1284572845763,1.44628
1284572905763,1.44044
1284572965763,1.44929
1284573025763,1.44283
1284573085763,1.44148
1284573145763,1.45093
1284573205763,1.45484
1284573265763,1.45038
1284573325763,1.44323
1284573385763,1.43940
1284573445763,1.44574
1284573505763,1.44260
1284573565763,1.44338
1284573625777,1.43683
1284573685777,1.44122
1284573745777,1.43708
1284573805777,1.44119
1284573865777,1.45028
1284573925777,1.44360
1284573985777,1.43297
1284574045777,1.43854
1284574105777,1.44969
1284574165777,1.44846
1284574225777,1.44062
1284574285777,1.43954
1284574345777,1.43343
1284574405777,1.43185
1284574465777,1.44056
1284574525777,1.43600
1284574585777,1.42613
1284574645777,1.43978
1284574705777,1.43282
1284574765777,1.43750
1284574825777,1.43956
1284574885777,1.43568
1284574945777,1.43213
1284575005777,1.43688
1284575065777,1.43981
1284575125777,1.43781
1284575185777,1.42706
1284575245777,1.43299
1284575305777,1.43610
1284575365777,1.44013
1284575425777,1.44143
1284575485777,1.42299
1284575545777,1.43428
1284575605777,1.44602
1284575665777,1.43549
1284575725777,1.43788
1284575785777,1.43747
1284575845777,1.42834
1284575905777,1.43031
1284575965777,1.44229
1284576025777,1.42525
1284576085777,1.43002
1284576145777,1.43262
1284576205777,1.42456
1284576265777,1.41627
1284576325777,1.43368
1284576385777,1.42496
1284576445777,1.43192
1284576505777,1.43757